EW7772 Weather Reports


time (UTC)temp
F
wind
direction
speed
knots
gust
knots
rain 1hr
in
rain 24hr
in
rain mn
in
humidity
%
barometer
mb
20260902201548 64 294 0.0 0.0 0.00 0.00 0.00 74 1021.2
20260902200045 65 294 0.0 0.0 0.00 0.00 0.00 72 1021.1
20260902194547 65 294 0.0 0.0 0.00 0.00 0.00 72 1021.1
20260902193046 65 294 0.0 0.0 0.00 0.00 0.00 70 1021.0
20260902191555 66 294 0.0 0.0 0.00 0.00 0.00 68 1020.9
20260902190053 67 294 0.0 0.0 0.00 0.00 0.00 66 1020.7
20260902184543 68 294 0.0 0.0 0.00 0.00 0.00 64 1020.7
20260902183043 69 294 0.0 0.0 0.00 0.00 0.00 61 1020.4
20260902181549 70 294 0.0 0.0 0.00 0.00 0.00 59 1020.4
20260902180044 71 294 0.0 0.9 0.00 0.00 0.00 57 1020.1
20260902174543 72 294 0.0 0.9 0.00 0.00 0.00 55 1020.0
20260902173042 73 294 0.0 1.7 0.00 0.00 0.00 54 1019.9
20260902171603 73 294 0.0 1.7 0.00 0.00 0.00 53 1019.7
20260902170040 74 290 0.0 0.9 0.00 0.00 0.00 52 1019.7
20260902164541 74 243 0.0 1.7 0.00 0.00 0.00 52 1019.6
20260902163039 75 242 0.0 2.6 0.00 0.00 0.00 55 1019.7
20260902161545 75 217 0.0 3.5 0.00 0.00 0.00 53 1019.7
20260902160042 75 229 0.0 0.9 0.00 0.00 0.00 53 1019.6
20260902154538 75 265 0.0 3.5 0.00 0.00 0.00 53 1019.7
20260902153037 75 264 0.0 2.6 0.00 0.00 0.00 53 1019.6
20260902151542 76 267 0.0 3.5 0.00 0.00 0.00 51 1019.7
20260902150036 78 307 0.0 3.5 0.00 0.00 0.00 48 1019.7
20260902144536 78 241 0.0 2.6 0.00 0.00 0.00 50 1019.5
20260902143035 77 239 0.0 2.6 0.00 0.00 0.00 50 1019.6
20260902141545 76 288 0.0 2.6 0.00 0.00 0.00 48 1019.7
20260902140035 77 227 0.0 3.5 0.00 0.00 0.00 47 1019.7
20260902134537 77 280 0.0 0.9 0.00 0.00 0.00 45 1019.6
20260902133037 79 242 0.9 4.3 0.00 0.00 0.00 41 1019.5
20260902131533 80 281 1.7 4.3 0.00 0.00 0.00 41 1019.5
20260902130036 80 234 0.0 4.3 0.00 0.00 0.00 44 1019.7
20260902124529 79 281 0.0 2.6 0.00 0.00 0.00 44 1019.8
20260902123028 79 288 0.0 3.5 0.00 0.00 0.00 43 1019.9
20260902121525 78 269 0.0 2.6 0.00 0.00 0.00 46 1020.0
20260902120025 78 274 0.0 1.7 0.00 0.00 0.00 44 1020.0
20260902114527 79 267 0.0 3.5 0.00 0.00 0.00 47 1020.2
20260902113020 78 320 0.0 1.7 0.00 0.00 0.00 48 1020.4
20260902111518 77 266 0.0 2.6 0.00 0.00 0.00 48 1020.5
20260902110015 77 265 0.0 2.6 0.00 0.00 0.00 50 1020.7
20260902104515 76 287 0.0 3.5 0.00 0.00 0.00 50 1020.8
20260902103009 75 300 0.0 0.9 0.00 0.00 0.00 56 1020.9
20260902101505 73 300 0.0 1.7 0.00 0.00 0.00 58 1021.0
20260902100001 71 300 0.0 1.7 0.00 0.00 0.00 61 1021.1
20260902094558 69 300 0.0 1.7 0.00 0.00 0.00 64 1021.4
20260902093053 67 336 0.0 0.9 0.00 0.00 0.00 66 1021.4
20260902091551 66 340 0.0 0.9 0.00 0.00 0.00 68 1021.3
20260902090048 65 341 0.0 0.9 0.00 0.00 0.00 69 1021.3
20260902084547 65 341 0.0 0.9 0.00 0.00 0.00 71 1021.4
20260902083041 63 341 0.0 0.0 0.00 0.00 0.00 75 1021.3
20260902081537 62 341 0.0 0.0 0.00 0.00 0.00 76 1021.4
20260902080038 61 341 0.0 0.0 0.00 0.00 0.00 77 1021.3
20260902074544 60 341 0.0 0.0 0.00 0.00 0.00 78 1021.1
20260902073031 59 341 0.0 0.0 0.00 0.00 0.00 79 1021.4
20260902071529 59 341 0.0 0.0 0.00 0.00 0.00 81 1021.3
20260902070026 58 342 0.0 0.0 0.00 0.00 0.00 82 1021.3
20260902064527 57 342 0.0 0.0 0.00 0.00 0.00 84 1021.2
20260902063048 56 342 0.0 0.0 0.00 0.00 0.00 85 1021.3
20260902061528 56 342 0.0 0.0 0.00 0.00 0.00 86 1021.3
20260902060024 55 342 0.0 0.0 0.00 0.00 0.00 86 1021.5
20260902054523 55 342 0.0 0.0 0.00 0.00 0.00 87 1021.4
20260902053022 53 342 0.0 0.0 0.00 0.00 0.00 89 1021.3
20260902051535 52 342 0.0 0.0 0.00 0.00 0.00 90 1021.3
20260902050029 52 342 0.0 0.0 0.00 0.00 0.00 90 1021.3
20260902044523 52 342 0.0 0.0 0.00 0.00 0.00 90 1021.1
20260902043021 52 342 0.0 0.0 0.00 0.00 0.00 90 1021.2
20260902041539 52 342 0.0 0.0 0.00 0.00 0.00 89 1021.2
20260902040025 52 342 0.0 0.0 0.00 0.00 0.00 89 1021.0
20260902034518 53 342 0.0 0.0 0.00 0.00 0.00 88 1021.1
20260902033017 53 342 0.0 0.0 0.00 0.00 0.00 88 1021.0
20260902031514 53 342 0.0 0.0 0.00 0.00 0.00 88 1021.1
20260902030013 54 342 0.0 0.0 0.00 0.00 0.00 87 1021.0
20260902024512 54 342 0.0 0.0 0.00 0.00 0.00 87 1021.1
20260902023011 54 342 0.0 0.0 0.00 0.00 0.00 87 1021.2
20260902021510 54 342 0.0 0.9 0.00 0.00 0.00 87 1021.1
20260902020011 54 342 0.0 0.0 0.00 0.00 0.00 87 1021.1
20260902014518 54 341 0.0 0.0 0.00 0.00 0.00 87 1021.2
20260902013011 54 341 0.0 0.0 0.00 0.00 0.00 88 1021.2
20260902011512 54 341 0.0 0.0 0.00 0.00 0.00 87 1021.2
20260902010006 55 341 0.0 0.0 0.00 0.00 0.00 87 1021.3
20260902004504 55 341 0.0 0.0 0.00 0.00 0.00 85 1021.3
20260902003003 56 341 0.0 0.0 0.00 0.00 0.00 84 1021.4
20260902001600 56 341 0.0 0.0 0.00 0.00 0.00 84 1021.5
20260902000100 57 341 0.0 0.0 0.00 0.00 0.00 83 1021.6
20260901234556 57 341 0.0 0.9 0.00 0.00 0.00 82 1021.5
20260901233056 57 336 0.0 0.9 0.00 0.00 0.00 81 1021.5
20260901231600 57 300 0.0 0.0 0.00 0.00 0.00 81 1021.6
20260901230054 58 299 0.0 0.0 0.00 0.00 0.00 81 1021.6
20260901224553 58 300 0.0 0.9 0.00 0.00 0.00 81 1021.6
20260901223052 57 298 0.0 0.9 0.00 0.00 0.00 83 1021.7
20260901221550 57 298 0.0 0.0 0.00 0.00 0.00 83 1021.7
20260901220049 57 298 0.0 0.0 0.00 0.00 0.00 83 1021.6
20260901214549 58 298 0.0 0.0 0.00 0.00 0.00 82 1021.6
20260901213048 58 298 0.0 0.0 0.00 0.00 0.00 81 1021.6
20260901211548 59 298 0.0 0.0 0.00 0.00 0.00 80 1021.6
20260901204547 60 298 0.0 0.0 0.00 0.00 0.00 77 1021.5
20260901203046 60 298 0.0 0.0 0.00 0.00 0.00 77 1021.5